Regional Weather Roundup
Issued by NWS

Home | Current Version | Previous Version | Text Only | Print | Product List | Glossary Off
Versions: 1 2 3 4 5 6 7 8 9 10 11 12 13 14 15 16 17 18 19 20 21 22 23 24 25 26 27 28 29 30 31 32 33 34 35 36 37 38 39 40 41 42 43 44 45 46 47 48 49 50

000
ASUS43 KLMK 051702
RWRKY
KENTUCKY REGIONAL WEATHER ROUNDUP
NATIONAL WEATHER SERVICE LOUISVILLE KY
1200 PM EST THU MAR 05 2015

NOTE "FAIR" INDICATES FEW OR NO CLOUDS BELOW 12,000 FEET
WITH NO SIGNIFICANT WEATHER AND/OR OBSTRUCTIONS TO VISIBILITY.

KYZ001>023-026-027-061>063-070>075-051800-
WESTERN AND SOUTH CENTRAL KENTUCKY

CITY           SKY/WX    TMP DP  RH WIND       PRES   REMARKS
PADUCAH        SUNNY     25  10  53 N13       30.49S WCI  14
HENDERSON      MOSUNNY   21   7  53 NW12      30.48R WCI   9
OWENSBORO      CLOUDY    22  12  65 NW13      30.46R WCI  10
HOPKINSVILLE   CLOUDY    21  12  68 N9        30.43R WCI  11
BOWLING GREEN  CLOUDY    22  15  75 N10G17    30.40R WCI  11
GLASGOW        NOT AVBL
$$

KYZ024-025-028>034-038-045-046-053-051800-
NORTH CENTRAL KENTUCKY

CITY           SKY/WX    TMP DP  RH WIND       PRES   REMARKS
LOUISVILLE/SDF CLOUDY    23  12  62 N10       30.40R WCI  12
LOUISVILLE/LOU CLOUDY    23  12  62 NW6       30.39S WCI  16
FORT KNOX      CLOUDY    21  12  68 NW6       30.37R WCI  14
$$

KYZ035>037-039>044-047>052-055>060-089>105-051800-
NORTHEAST KENTUCKY

CITY           SKY/WX    TMP DP  RH WIND       PRES   REMARKS
LEXINGTON      LGT SNOW  18  14  84 N9        30.34R FOG     WCI   7
COVINGTON      CLOUDY    21   9  59 VRB7      30.36R WCI  12
FRANKFORT      CLOUDY    20  12  71 N6        30.36R WCI  12
$$

KYZ054-064>069-076>088-106>120-051800-
SOUTHEAST KENTUCKY

CITY           SKY/WX    TMP DP  RH WIND       PRES   REMARKS
JACKSON        LGT SNOW  20  16  84 VRB6      30.25R VSB 3/4 WCI  12
LONDON         LGT SNOW  23  15  71 N12       30.24F WCI  12
SOMERSET       NOT AVBL
MIDDLESBORO    NOT AVBL
MONTICELLO     LGT SNOW  23  19  85 N8        30.34R VSB 3/4 WCI  14
$$




USA.gov is the U.S. government's official web portal to all federal, state and local government web resources and services.